Time,TemperatureF,DewpointF,PressureIn,WindDirection,WindDirectionDegrees,WindSpeedMPH,WindSpeedGustMPH,Humidity,HourlyPrecipIn,Conditions,Clouds,dailyrainin,SoftwareType,DateUTC
2013-03-24 00:02:00,28.0,19.0,-100.00,North,355,0.0,4.0,72,0.00,,,0.00,,2013-03-24 05:02:00,
2013-03-24 00:12:00,28.0,19.0,-100.00,NNW,345,1.0,4.0,72,0.00,,,0.00,,2013-03-24 05:12:00,
2013-03-24 00:22:00,28.0,19.0,-100.00,North,10,1.0,2.0,72,0.00,,,0.00,,2013-03-24 05:22:00,
2013-03-24 00:32:00,27.0,19.0,-100.00,NNW,335,1.0,4.0,72,0.00,,,0.00,,2013-03-24 05:32:00,
2013-03-24 00:42:00,27.0,19.0,-100.00,NW,320,1.0,4.0,72,0.00,,,0.00,,2013-03-24 05:42:00,
2013-03-24 00:52:00,27.0,19.0,-100.00,NNW,330,1.0,3.0,72,0.00,,,0.00,,2013-03-24 05:52:00,
2013-03-24 01:02:00,27.0,19.0,-100.00,NNW,345,1.0,4.0,72,0.00,,,0.00,,2013-03-24 06:02:00,
2013-03-24 01:12:00,27.0,19.0,-100.00,NNW,345,1.0,4.0,72,0.00,,,0.00,,2013-03-24 06:12:00,
2013-03-24 01:22:00,27.0,19.0,-100.00,NNE,30,1.0,6.0,72,0.00,,,0.00,,2013-03-24 06:22:00,
2013-03-24 01:32:00,27.0,19.0,-100.00,NNE,30,1.0,6.0,72,0.00,,,0.00,,2013-03-24 06:32:00,
2013-03-24 01:42:00,27.0,19.0,-100.00,NW,325,1.0,4.0,72,0.00,,,0.00,,2013-03-24 06:42:00,
2013-03-24 01:52:00,27.0,19.0,-100.00,NW,320,0.0,4.0,72,0.00,,,0.00,,2013-03-24 06:52:00,
2013-03-24 02:02:00,27.0,19.0,-100.00,North,5,1.0,6.0,72,0.00,,,0.00,,2013-03-24 07:02:00,
2013-03-24 02:12:00,26.0,19.0,-100.00,NW,320,1.0,4.0,72,0.00,,,0.00,,2013-03-24 07:12:00,
2013-03-24 02:22:00,26.0,19.0,-100.00,NW,315,2.0,4.0,72,0.00,,,0.00,,2013-03-24 07:22:00,
2013-03-24 02:32:00,26.0,19.0,-100.00,NNW,340,1.0,6.0,72,0.00,,,0.00,,2013-03-24 07:32:00,
2013-03-24 02:42:00,26.0,18.0,-100.00,NNE,25,1.0,3.0,72,0.00,,,0.00,,2013-03-24 07:42:00,
2013-03-24 02:52:00,26.0,18.0,-100.00,North,0,1.0,4.0,72,0.00,,,0.00,,2013-03-24 07:52:00,
2013-03-24 03:03:00,26.0,18.0,-100.00,SE,140,1.0,4.0,73,0.00,,,0.00,,2013-03-24 08:03:00,
2013-03-24 03:12:00,26.0,18.0,-100.00,NNW,335,1.0,3.0,73,0.00,,,0.00,,2013-03-24 08:12:00,
2013-03-24 03:22:00,26.0,18.0,-100.00,NNW,330,1.0,3.0,73,0.00,,,0.00,,2013-03-24 08:22:00,
2013-03-24 03:32:00,26.0,18.0,-100.00,NE,40,1.0,3.0,73,0.00,,,0.00,,2013-03-24 08:32:00,
2013-03-24 03:42:00,26.0,18.0,-100.00,NE,35,1.0,2.0,73,0.00,,,0.00,,2013-03-24 08:42:00,
2013-03-24 03:52:00,26.0,18.0,-100.00,NNE,20,1.0,2.0,73,0.00,,,0.00,,2013-03-24 08:52:00,
2013-03-24 04:02:00,26.0,18.0,-100.00,North,5,1.0,2.0,73,0.00,,,0.00,,2013-03-24 09:02:00,
2013-03-24 04:12:00,26.0,18.0,-100.00,North,355,1.0,3.0,73,0.00,,,0.00,,2013-03-24 09:12:00,
2013-03-24 04:22:00,25.0,18.0,-100.00,NW,315,0.0,2.0,74,0.00,,,0.00,,2013-03-24 09:22:00,
2013-03-24 04:33:00,25.0,18.0,-100.00,West,270,1.0,2.0,74,0.00,,,0.00,,2013-03-24 09:33:00,
2013-03-24 04:42:00,25.0,18.0,-100.00,NNW,345,1.0,3.0,75,0.00,,,0.00,,2013-03-24 09:42:00,
2013-03-24 04:52:00,25.0,18.0,-100.00,North,5,0.0,2.0,76,0.00,,,0.00,,2013-03-24 09:52:00,
2013-03-24 05:03:00,25.0,18.0,-100.00,North,355,1.0,2.0,77,0.00,,,0.00,,2013-03-24 10:03:00,
2013-03-24 05:12:00,25.0,18.0,-100.00,NNW,330,1.0,3.0,77,0.00,,,0.00,,2013-03-24 10:12:00,
2013-03-24 05:22:00,25.0,18.0,-100.00,North,0,1.0,4.0,77,0.00,,,0.00,,2013-03-24 10:22:00,
2013-03-24 05:32:00,25.0,18.0,-100.00,NNW,335,1.0,3.0,76,0.00,,,0.00,,2013-03-24 10:32:00,
2013-03-24 05:42:00,25.0,18.0,-100.00,NNW,335,1.0,2.0,77,0.00,,,0.00,,2013-03-24 10:42:00,
2013-03-24 05:52:00,24.0,18.0,-100.00,NNW,345,1.0,3.0,77,0.00,,,0.00,,2013-03-24 10:52:00,
2013-03-24 06:03:00,24.0,18.0,-100.00,North,355,1.0,2.0,77,0.00,,,0.00,,2013-03-24 11:03:00,
2013-03-24 06:12:00,25.0,18.0,-100.00,North,355,2.0,2.0,77,0.00,,,0.00,,2013-03-24 11:12:00,
2013-03-24 06:22:00,25.0,19.0,-100.00,North,0,1.0,3.0,77,0.00,,,0.00,,2013-03-24 11:22:00,
2013-03-24 06:32:00,25.0,18.0,-100.00,North,355,0.0,2.0,77,0.00,,,0.00,,2013-03-24 11:32:00,
2013-03-24 06:42:00,25.0,19.0,-100.00,North,355,1.0,2.0,77,0.00,,,0.00,,2013-03-24 11:42:00,
2013-03-24 06:52:00,25.0,19.0,-100.00,North,5,1.0,2.0,77,0.00,,,0.00,,2013-03-24 11:52:00,
2013-03-24 07:02:00,25.0,19.0,-100.00,NNW,335,1.0,2.0,78,0.00,,,0.00,,2013-03-24 12:02:00,
2013-03-24 07:12:00,25.0,19.0,-100.00,North,355,1.0,2.0,78,0.00,,,0.00,,2013-03-24 12:12:00,
2013-03-24 07:22:00,24.0,19.0,-100.00,North,0,1.0,4.0,79,0.00,,,0.00,,2013-03-24 12:22:00,
2013-03-24 07:32:00,25.0,21.0,-100.00,NE,55,4.0,4.0,82,0.00,,,0.00,,2013-03-24 12:32:00,
2013-03-24 07:42:00,25.0,21.0,-100.00,NNE,25,3.0,4.0,84,0.00,,,0.00,,2013-03-24 12:42:00,
2013-03-24 07:52:00,25.0,21.0,-100.00,NNE,20,2.0,4.0,85,0.00,,,0.00,,2013-03-24 12:52:00,
2013-03-24 08:02:00,25.0,21.0,-100.00,NE,35,4.0,4.0,86,0.00,,,0.00,,2013-03-24 13:02:00,
2013-03-24 08:12:00,26.0,23.0,-100.00,NE,55,4.0,6.0,88,0.00,,,0.00,,2013-03-24 13:12:00,
2013-03-24 08:22:00,26.0,23.0,-100.00,ENE,65,3.0,4.0,89,0.00,,,0.00,,2013-03-24 13:22:00,
2013-03-24 08:32:00,26.0,23.0,-100.00,ENE,60,4.0,6.0,88,0.00,,,0.00,,2013-03-24 13:32:00,
2013-03-24 08:42:00,26.0,23.0,-100.00,ENE,75,3.0,6.0,88,0.00,,,0.00,,2013-03-24 13:42:00,
2013-03-24 08:52:00,26.0,23.0,-100.00,ENE,60,3.0,5.0,88,0.00,,,0.00,,2013-03-24 13:52:00,
2013-03-24 09:02:00,26.0,23.0,-100.00,NE,55,4.0,6.0,88,0.00,,,0.00,,2013-03-24 14:02:00,
2013-03-24 09:12:00,26.0,23.0,-100.00,ENE,60,3.0,6.0,87,0.00,,,0.00,,2013-03-24 14:12:00,
2013-03-24 09:22:00,26.0,23.0,-100.00,NE,55,4.0,7.0,87,0.00,,,0.00,,2013-03-24 14:22:00,
2013-03-24 09:32:00,27.0,23.0,-100.00,ENE,60,4.0,7.0,85,0.00,,,0.00,,2013-03-24 14:32:00,
2013-03-24 09:42:00,27.0,23.0,-100.00,NNE,30,7.0,9.0,84,0.00,,,0.00,,2013-03-24 14:42:00,
2013-03-24 09:52:00,27.0,23.0,-100.00,NE,50,7.0,9.0,82,0.00,,,0.00,,2013-03-24 14:52:00,
2013-03-24 10:02:00,27.0,23.0,-100.00,NE,55,6.0,9.0,80,0.00,,,0.00,,2013-03-24 15:02:00,
2013-03-24 10:12:00,27.0,21.0,-100.00,NE,45,8.0,11.0,78,0.00,,,0.00,,2013-03-24 15:12:00,
2013-03-24 10:22:00,28.0,21.0,-100.00,NE,50,7.0,12.0,75,0.00,,,0.00,,2013-03-24 15:22:00,
2013-03-24 10:33:00,29.0,21.0,-100.00,NE,55,6.0,9.0,73,0.00,,,0.00,,2013-03-24 15:33:00,
2013-03-24 10:43:00,29.0,19.0,-100.00,NE,50,7.0,9.0,68,0.00,,,0.00,,2013-03-24 15:43:00,
2013-03-24 10:53:00,29.0,19.0,-100.00,NE,50,7.0,12.0,65,0.00,,,0.00,,2013-03-24 15:53:00,
2013-03-24 11:03:00,30.0,19.0,-100.00,ENE,60,7.0,11.0,66,0.00,,,0.00,,2013-03-24 16:03:00,
2013-03-24 11:12:00,30.0,19.0,-100.00,NE,50,9.0,11.0,66,0.00,,,0.00,,2013-03-24 16:12:00,
2013-03-24 11:22:00,30.0,19.0,-100.00,ENE,65,6.0,12.0,64,0.00,,,0.00,,2013-03-24 16:22:00,
2013-03-24 11:33:00,31.0,19.0,-100.00,ENE,60,7.0,13.0,64,0.00,,,0.00,,2013-03-24 16:33:00,
2013-03-24 11:42:00,31.0,19.0,-100.00,NE,35,9.0,16.0,61,0.00,,,0.00,,2013-03-24 16:42:00,
2013-03-24 11:52:00,31.0,19.0,-100.00,NE,35,11.0,16.0,61,0.00,,,0.00,,2013-03-24 16:52:00,
2013-03-24 12:02:00,31.0,19.0,-100.00,NE,35,9.0,16.0,62,0.00,,,0.00,,2013-03-24 17:02:00,
2013-03-24 12:12:00,31.0,19.0,-100.00,NE,35,12.0,17.0,59,0.00,,,0.00,,2013-03-24 17:12:00,
2013-03-24 12:22:00,31.0,19.0,-100.00,ENE,65,9.0,17.0,59,0.00,,,0.00,,2013-03-24 17:22:00,
2013-03-24 12:33:00,32.0,19.0,-100.00,NE,55,10.0,12.0,59,0.00,,,0.00,,2013-03-24 17:33:00,
2013-03-24 12:42:00,32.0,19.0,-100.00,ENE,60,6.0,14.0,60,0.00,,,0.00,,2013-03-24 17:42:00,
2013-03-24 12:52:00,32.0,19.0,-100.00,NE,50,9.0,12.0,58,0.00,,,0.00,,2013-03-24 17:52:00,
2013-03-24 13:03:00,33.0,19.0,-100.00,ENE,60,6.0,13.0,58,0.00,,,0.00,,2013-03-24 18:03:00,
2013-03-24 13:12:00,33.0,19.0,-100.00,ENE,60,6.0,13.0,58,0.00,,,0.00,,2013-03-24 18:12:00,
2013-03-24 13:22:00,33.0,19.0,-100.00,NE,55,7.0,13.0,57,0.00,,,0.00,,2013-03-24 18:22:00,
2013-03-24 13:32:00,33.0,19.0,-100.00,NE,45,10.0,15.0,56,0.00,,,0.00,,2013-03-24 18:32:00,
2013-03-24 13:42:00,32.0,19.0,-100.00,NE,35,7.0,12.0,57,0.00,,,0.00,,2013-03-24 18:42:00,
2013-03-24 13:52:00,33.0,19.0,-100.00,NE,55,6.0,11.0,58,0.00,,,0.00,,2013-03-24 18:52:00,
2013-03-24 14:02:00,33.0,19.0,-100.00,NE,50,9.0,12.0,59,0.00,,,0.00,,2013-03-24 19:02:00,
2013-03-24 14:12:00,33.0,19.0,-100.00,NE,35,6.0,13.0,59,0.00,,,0.00,,2013-03-24 19:12:00,
2013-03-24 14:22:00,33.0,19.0,-100.00,NE,45,9.0,12.0,57,0.00,,,0.00,,2013-03-24 19:22:00,
2013-03-24 14:32:00,33.0,19.0,-100.00,NE,35,9.0,11.0,57,0.00,,,0.00,,2013-03-24 19:32:00,
2013-03-24 14:42:00,33.0,19.0,-100.00,NNE,30,7.0,11.0,56,0.00,,,0.00,,2013-03-24 19:42:00,
2013-03-24 14:52:00,33.0,19.0,-100.00,NE,35,5.0,10.0,55,0.00,,,0.00,,2013-03-24 19:52:00,
2013-03-24 15:02:00,33.0,19.0,-100.00,NE,50,5.0,7.0,56,0.00,,,0.00,,2013-03-24 20:02:00,
2013-03-24 15:12:00,33.0,19.0,-100.00,ENE,60,7.0,11.0,54,0.00,,,0.00,,2013-03-24 20:12:00,
2013-03-24 15:22:00,33.0,18.0,-100.00,ENE,60,7.0,13.0,53,0.00,,,0.00,,2013-03-24 20:22:00,
2013-03-24 15:32:00,33.0,18.0,-100.00,NE,35,8.0,11.0,53,0.00,,,0.00,,2013-03-24 20:32:00,
2013-03-24 15:42:00,33.0,19.0,-100.00,ENE,60,9.0,14.0,54,0.00,,,0.00,,2013-03-24 20:42:00,
2013-03-24 15:52:00,33.0,18.0,-100.00,NE,40,8.0,12.0,53,0.00,,,0.00,,2013-03-24 20:52:00,
2013-03-24 16:02:00,34.0,19.0,-100.00,NE,35,11.0,14.0,53,0.00,,,0.00,,2013-03-24 21:02:00,
2013-03-24 16:12:00,33.0,19.0,-100.00,NE,40,7.0,15.0,56,0.00,,,0.00,,2013-03-24 21:12:00,
2013-03-24 16:22:00,33.0,19.0,-100.00,NE,50,10.0,12.0,57,0.00,,,0.00,,2013-03-24 21:22:00,
2013-03-24 16:33:00,33.0,19.0,-100.00,NE,45,11.0,14.0,56,0.00,,,0.00,,2013-03-24 21:33:00,
2013-03-24 16:43:00,33.0,19.0,-100.00,NE,35,11.0,14.0,56,0.00,,,0.00,,2013-03-24 21:43:00,
2013-03-24 16:52:00,33.0,19.0,-100.00,NNE,30,12.0,16.0,57,0.00,,,0.00,,2013-03-24 21:52:00,
2013-03-24 17:02:00,33.0,19.0,-100.00,NNE,30,9.0,14.0,56,0.00,,,0.00,,2013-03-24 22:02:00,
2013-03-24 17:13:00,34.0,19.0,-100.00,NNE,30,5.0,14.0,56,0.00,,,0.00,,2013-03-24 22:13:00,
2013-03-24 17:22:00,33.0,19.0,-100.00,NE,35,12.0,17.0,56,0.00,,,0.00,,2013-03-24 22:22:00,
2013-03-24 17:33:00,33.0,19.0,-100.00,NNE,20,7.0,15.0,57,0.00,,,0.00,,2013-03-24 22:33:00,
2013-03-24 17:42:00,33.0,19.0,-100.00,NNE,20,6.0,13.0,58,0.00,,,0.00,,2013-03-24 22:42:00,
2013-03-24 17:52:00,33.0,19.0,-100.00,NNE,30,6.0,13.0,59,0.00,,,0.00,,2013-03-24 22:52:00,
2013-03-24 18:02:00,33.0,19.0,-100.00,NNE,25,7.0,12.0,59,0.00,,,0.00,,2013-03-24 23:02:00,
2013-03-24 18:12:00,33.0,19.0,-100.00,North,0,6.0,15.0,60,0.00,,,0.00,,2013-03-24 23:12:00,
2013-03-24 18:22:00,32.0,21.0,-100.00,NNE,20,6.0,12.0,61,0.00,,,0.00,,2013-03-24 23:22:00,
2013-03-24 18:32:00,32.0,21.0,-100.00,North,5,5.0,12.0,62,0.00,,,0.00,,2013-03-24 23:32:00,
2013-03-24 18:42:00,32.0,21.0,-100.00,NNE,30,4.0,12.0,63,0.00,,,0.00,,2013-03-24 23:42:00,
2013-03-24 18:52:00,32.0,21.0,-100.00,North,10,5.0,9.0,63,0.00,,,0.00,,2013-03-24 23:52:00,
2013-03-24 19:02:00,32.0,21.0,-100.00,NNE,15,4.0,8.0,63,0.00,,,0.00,,2013-03-25 00:02:00,
2013-03-24 19:12:00,32.0,21.0,-100.00,NNE,25,4.0,8.0,64,0.00,,,0.00,,2013-03-25 00:12:00,
2013-03-24 19:22:00,32.0,21.0,-100.00,NNE,25,4.0,9.0,65,0.00,,,0.00,,2013-03-25 00:22:00,
2013-03-24 19:32:00,32.0,21.0,-100.00,North,355,2.0,7.0,66,0.00,,,0.00,,2013-03-25 00:32:00,
2013-03-24 19:42:00,31.0,21.0,-100.00,NNE,25,2.0,7.0,66,0.00,,,0.00,,2013-03-25 00:42:00,
2013-03-24 19:52:00,31.0,21.0,-100.00,NNE,20,1.0,5.0,67,0.00,,,0.00,,2013-03-25 00:52:00,
2013-03-24 20:02:00,31.0,21.0,-100.00,North,5,1.0,4.0,68,0.00,,,0.00,,2013-03-25 01:02:00,
2013-03-24 20:12:00,31.0,21.0,-100.00,NE,35,1.0,2.0,69,0.00,,,0.00,,2013-03-25 01:12:00,
2013-03-24 20:22:00,30.0,21.0,-100.00,NNE,15,1.0,2.0,70,0.00,,,0.00,,2013-03-25 01:22:00,
2013-03-24 20:32:00,30.0,23.0,-100.00,NNE,30,1.0,2.0,71,0.00,,,0.00,,2013-03-25 01:32:00,
2013-03-24 20:42:00,30.0,21.0,-100.00,North,5,1.0,1.0,72,0.00,,,0.00,,2013-03-25 01:42:00,
2013-03-24 20:52:00,30.0,23.0,-100.00,NW,325,0.0,2.0,73,0.00,,,0.00,,2013-03-25 01:52:00,
2013-03-24 21:02:00,30.0,23.0,-100.00,NNE,30,1.0,1.0,73,0.00,,,0.00,,2013-03-25 02:02:00,
2013-03-24 21:12:00,30.0,23.0,-100.00,NNE,30,2.0,3.0,73,0.00,,,0.00,,2013-03-25 02:12:00,
2013-03-24 21:22:00,31.0,23.0,-100.00,NE,40,2.0,4.0,72,0.00,,,0.00,,2013-03-25 02:22:00,
2013-03-24 21:32:00,30.0,23.0,-100.00,NNE,30,3.0,5.0,72,0.00,,,0.00,,2013-03-25 02:32:00,
2013-03-24 21:42:00,31.0,23.0,-100.00,North,5,2.0,6.0,72,0.00,,,0.00,,2013-03-25 02:42:00,
2013-03-24 21:52:00,31.0,23.0,-100.00,NNE,15,3.0,7.0,71,0.00,,,0.00,,2013-03-25 02:52:00,
2013-03-24 22:02:00,31.0,21.0,-100.00,NNE,20,4.0,7.0,68,0.00,,,0.00,,2013-03-25 03:02:00,
2013-03-24 22:12:00,31.0,21.0,-100.00,NNE,30,3.0,9.0,68,0.00,,,0.00,,2013-03-25 03:12:00,
2013-03-24 22:22:00,31.0,21.0,-100.00,NNE,30,4.0,7.0,68,0.00,,,0.00,,2013-03-25 03:22:00,
2013-03-24 22:33:00,30.0,21.0,-100.00,NNE,25,5.0,9.0,69,0.00,,,0.00,,2013-03-25 03:33:00,
2013-03-24 22:42:00,30.0,21.0,-100.00,NNE,30,7.0,9.0,70,0.00,,,0.00,,2013-03-25 03:42:00,
2013-03-24 22:52:00,30.0,21.0,-100.00,NNE,25,4.0,8.0,70,0.00,,,0.00,,2013-03-25 03:52:00,
2013-03-24 23:02:00,30.0,21.0,-100.00,NNE,25,5.0,7.0,69,0.00,,,0.00,,2013-03-25 04:02:00,
2013-03-24 23:12:00,30.0,21.0,-100.00,NNE,30,4.0,8.0,68,0.00,,,0.00,,2013-03-25 04:12:00,
2013-03-24 23:22:00,30.0,21.0,-100.00,NNE,15,4.0,7.0,68,0.00,,,0.00,,2013-03-25 04:22:00,
2013-03-24 23:33:00,30.0,21.0,-100.00,NNE,20,4.0,9.0,68,0.00,,,0.00,,2013-03-25 04:33:00,
2013-03-24 23:42:00,30.0,19.0,-100.00,NNE,20,6.0,9.0,67,0.00,,,0.00,,2013-03-25 04:42:00,
2013-03-24 23:52:00,30.0,19.0,-100.00,North,5,6.0,9.0,66,0.00,,,0.00,,2013-03-25 04:52:00,